Orbital elements:
2018 WV                                                  Earth MOID = 0.0016 AU
Epoch 2019 Apr. 27.0 TT = JDT 2458600.5                 MPC
M  40.55005              (2000.0)            P               Q
n   0.24135348     Peri.  356.88750     +0.70166904     -0.71230587
a   2.5548594      Node    48.55061     +0.65419075     +0.63474491
e   0.6117734      Incl.    1.28129     +0.28230308     +0.29953173
P   4.08           H   25.6           G   0.15           U   4
Residuals in seconds of arc
181118 G96  0.6+  0.5-    181118 J95  0.2-  0.1+    181119 L01  0.7+  0.1+
181118 G96  2.2-  0.3-    181118 C95  0.7-  0.1+    181119 W34  0.1-  0.1-
181118 G96  2.5-  0.8-    181118 C95  0.8-  0.3-    181119 W34  0.0   0.1+
181118 G96 (3.7+  1.1-)   181118 C77  0.2+  0.6-    181119 W34  1.1-  0.6+
181118 I52  0.4+  0.3-    181118 C77  0.4-  0.6+    181119 H01  0.3-  0.1-
181118 I52  0.7+  0.3-    181118 C95  0.6-  0.2+    181119 H01  0.2-  0.1-
181118 718  0.1+  0.1-    181118 C77  0.8+  0.6+    181119 H01  0.2-  0.1-
181118 718  0.1-  0.7-    181118 C95  0.3-  1.2-    181119 H01  0.0   0.1-
181118 718  0.1+  0.1-    181118 K38  0.6-  0.0     181119 658  0.0   1.4-
181118 718  0.5-  1.0-    181118 K38  0.2+  0.1-    181119 658  0.1-  1.3-
181118 Z99  0.3+  0.7+    181118 C95  0.4-  0.2+    181119 658  0.0   1.2-
181118 Z99  0.1-  0.8+    181118 K38  0.3+  0.2-    181119 658  0.1+  1.1-
181118 Z99  0.5+  0.1+    181118 C95  0.5-  0.1+    181119 658  0.2+  1.1-
181118 104  0.5-  0.4+    181118 C95  0.3-  0.1-    181119 658  0.0   1.1-
181118 104  0.4+  0.7+    181118 C95  0.7-  0.1-    181119 I52  0.1+  0.3-
181118 104  0.9-  0.8+    181118 K63  0.3-  0.8+    181119 I52  0.0   0.3-
181118 Z80  0.6+  0.8+    181118 K63  0.7-  0.0     181119 I52  0.1-  0.1-
181118 Z80  0.8-  0.8+    181118 K63  0.3-  0.3-    181119 I52  0.0   0.2-
181118 Z80  0.7-  0.1+    181118 160  0.2-  0.4+    181120 H36  0.1-  0.3+
181118 595  0.1-  0.3+    181118 160  0.0   0.4+    181120 H36  0.1-  0.0
181118 Z80  1.2-  0.5+    181118 160  0.2-  0.6+    181120 H36  0.6-  0.1-
181118 Z80  0.3-  1.2+    181118 160  0.3-  0.1+    181120 H01  0.4-  0.1+
181118 Z80  0.0   0.7+    181118 160  0.1-  0.4+    181120 H36  0.2+  0.1+
181118 595  0.1+  1.0+    181119 L01  0.5+  0.2-    181120 H01  0.3-  0.1+
181118 J95  0.5-  0.4+    181119 L01  0.8+  0.0     181120 H01  0.5-  0.1+
181118 J95  0.0   0.2+    181119 L01  0.5+  0.0     181120 H01  0.2-  0.0
181118 J95  0.5-  0.2+    181119 L01  0.4+  0.1-

Ephemeris:
2018 WV                  a,e,i = 2.55, 0.61, 1                   q = 0.9919
Date    TT    R. A. (2000) Decl.     Delta      r     Elong.  Phase     V
2018 10 21    20 50 44.3 -23 08 19   0.1208  1.0264   101.4    71.9    23.6
...
2018 11 05    21 05 39.3 -20 47 43   0.05453 0.9936    90.5    86.4    22.3
...
2018 11 13    22 01 38.4 -11 17 46   0.01843 0.9925    98.2    80.7    19.7
...
2018 11 19    06 10 06.7 +36 57 03   0.01380 0.9993   142.1    37.4    17.8
2018 11 20    06 50 17.4 +34 56 56   0.01793 1.0010   135.5    43.8    18.6
2018 11 21    07 13 55.0 +33 18 44   0.02229 1.0029   131.8    47.3    19.1
...
2018 11 27    08 00 36.9 +28 54 17   0.04983 1.0180   127.6    50.2    21.0
...
2018 12 05    08 11 41.8 +27 17 43   0.08731 1.0470   133.0    43.5    22.1
...
2018 12 20    08 06 50.4 +26 33 38   0.1610  1.1248   149.0    26.8    23.1

A. U. Tomatic                (C) Copyright 2018 MPC           M.P.E.C. 2018-W45



More information about the Iaude mailing list